STARLINK-1118

decayed
NORAD ID: 44948 Int'l Des: 2020-001 Owner: SPXS Country: US Constellation: starlink
LEOCIRCULAR
グループ

STARLINK-1118について

説明を読み込み中...

高度履歴

Altitude vs Time

uPlot chart will show altitude changes over time

軌道要素

1 44948U 20001AL 20093.11544131 +.10026385 +12155-4 +15322-2 0 9994
2 44948 052.9916 320.6390 0006458 255.8970 104.1355 16.33333815013677
Epoch: Apr 2, 2020 • Age: 47822 hours

現在のステータス

Position data unavailable
打ち上げ日 Jan 7, 2020
運用期間 5.6 years
落下予定日 Apr 2, 2020
タイプ internet

技術仕様

分類 Payload
質量 260.00 kg
乾燥質量 248.00 kg
総質量 260.00 kg
長さ 0.20 m
直径 2.80 m
スパン 9.00 m
形状 Box + pan
製造者 SPXS
バスタイプ Starlink
フェーズステータス Reentered
所有者/国 SPXS/US

大規模コンステレーション

Loading constellations...